Regional Weather Roundup
Issued by NWS

Home | Current Version | Previous Version | Text Only | Print | Product List | Glossary Off
Versions: 1 2 3 4 5 6 7 8 9 10 11 12 13 14 15 16 17 18 19 20 21 22 23 24 25 26 27 28 29 30 31 32 33 34 35 36 37 38 39 40 41 42 43 44 45 46 47 48 49 50

472
ASUS44 KMEG 180800
RWRTN
TENNESSEE HOURLY STATE WEATHER ROUNDUP
NATIONAL WEATHER SERVICE MEMPHIS TN
200 AM CST SAT NOV 18 2017

TNZ002-004-019-021-049-052-054-088>092-180900-
WEST TENNESSEE

CITY           SKY/WX    TMP DP  RH WIND       PRES   REMARKS
MEMPHIS INTL   CLOUDY    69  59  70 S17G30    29.74F
NWS MEMPHIS      N/A     69 N/A N/A MISG        N/A
JACKSON        CLOUDY    65  57  75 S8        29.75F
DYERSBURG      CLOUDY    67  57  70 S10G22    29.71S
$$

TNZ008-025-027-028-033-062-065-066-180900-
NORTH MIDDLE TENNESSEE

CITY           SKY/WX    TMP DP  RH WIND       PRES   REMARKS
NASHVILLE      CLOUDY    60  43  53 S17       29.84F
CLARKSVILLE    CLOUDY    64  52  64 S18G26    29.76F
SMYRNA         CLOUDY    59  42  53 S13G20    29.87F
CROSSVILLE     CLOUDY    52  37  56 S13G21    29.96S
$$

TNZ061-075-076-078-094-096-097-180900-
SOUTH MIDDLE TENNESSEE

CITY           SKY/WX    TMP DP  RH WIND       PRES   REMARKS
WINCHESTER     MOCLDY    55  37  50 S17       29.94F
$$

TNZ017-018-042-046-047-180900-
NORTHEAST TENNESSEE

CITY           SKY/WX    TMP DP  RH WIND       PRES   REMARKS
TRI CITIES     CLOUDY    42  37  82 CALM      29.97F
$$

TNZ012-013-036-069-073-074-180900-
CENTRAL EAST TENNESSEE

CITY           SKY/WX    TMP DP  RH WIND       PRES   REMARKS
KNOXVILLE      CLOUDY    45  42  89 E5        29.96S
OAK RIDGE      MOCLDY    50  41  71 VRB3      29.99S
$$

TNZ083-085-099-180900-
SOUTHEAST TENNESSEE

CITY           SKY/WX    TMP DP  RH WIND       PRES   REMARKS
CHATTANOOGA    CLEAR     49  41  74 S5        30.00S
$$

SKY/WX REPORTED AS FAIR MEANS FEW OR NO CLOUDS BELOW
12 THOUSAND FEET.





USA.gov is the U.S. government's official web portal to all federal, state and local government web resources and services.